When you browse on this site, cookies collect data to enhance your experience and personalize the content and advertising you see.
Visit our Privacy Policy to learn more. By continuing to use the site, you agree to this use of cookies and data.
  • En España
  • Lista de países
  • Para 7 días
  • Temperatura del agua
  • El tiempo en el mapa
  • Informadores
  • user-avatar
    Iniciar sesión

    Tiempo cada hora Puerto Varas

    Hoy, 19 Febrero, Miércoles

    Tiempo Temperatura Precipitaciones Viento Presión Humedad
    00:00 +11°C° 0 mm 3 mps 755 mmHg 90%
    01:00 +10°C° 0 mm 3 mps 755 mmHg 87%
    02:00 +10°C° 0 mm 3 mps 755 mmHg 86%
    03:00 +9°C° 0 mm 3 mps 756 mmHg 86%
    04:00 +8°C° 0 mm 3 mps 756 mmHg 86%
    05:00 +9°C° 0 mm 3 mps 756 mmHg 81%
    06:00 +10°C° 0 mm 3 mps 757 mmHg 77%
    07:00 +10°C° 0 mm 3 mps 757 mmHg 73%
    08:00 +12°C° 0 mm 4 mps 757 mmHg 67%
    09:00 +13°C° 0 mm 4 mps 757 mmHg 61%
    10:00 +15°C° 0 mm 4 mps 757 mmHg 55%
    11:00 +15°C° 0 mm 5 mps 757 mmHg 53%
    12:00 +16°C° 0 mm 5 mps 757 mmHg 51%
    13:00 +16°C° 0 mm 5 mps 757 mmHg 49%
    14:00 +16°C° 0 mm 5 mps 757 mmHg 48%
    15:00 +16°C° 0 mm 5 mps 757 mmHg 47%
    16:00 +16°C° 0 mm 5 mps 756 mmHg 46%
    17:00 +14°C° 0 mm 5 mps 757 mmHg 50%
    18:00 +13°C° 0 mm 4 mps 757 mmHg 54%
    19:00 +12°C° 0 mm 4 mps 758 mmHg 58%
    20:00 +11°C° 0 mm 4 mps 758 mmHg 63%
    21:00 +11°C° 0 mm 4 mps 758 mmHg 67%
    22:00 +10°C° 0 mm 4 mps 758 mmHg 72%
    23:00 +10°C° 0 mm 4 mps 758 mmHg 76%

    Mañana, 20 Febrero, Jueves

    Tiempo Temperatura Precipitaciones Viento Presión Humedad
    00:00 +8°C° 0 mm 4 mps 758 mmHg 79%
    01:00 +9°C° 0 mm 3 mps 758 mmHg 83%
    02:00 +9°C° 0 mm 3 mps 757 mmHg 83%
    03:00 +9°C° 0 mm 3 mps 757 mmHg 82%
    04:00 +9°C° 0 mm 3 mps 757 mmHg 81%
    05:00 +9°C° 0 mm 3 mps 757 mmHg 78%
    06:00 +10°C° 0 mm 3 mps 756 mmHg 74%
    07:00 +11°C° 0 mm 3 mps 756 mmHg 71%
    08:00 +13°C° 0 mm 3 mps 756 mmHg 65%
    09:00 +16°C° 0 mm 3 mps 756 mmHg 58%
    10:00 +18°C° 0 mm 3 mps 756 mmHg 52%
    11:00 +19°C° 0 mm 3 mps 755 mmHg 51%
    12:00 +20°C° 0 mm 4 mps 755 mmHg 50%
    13:00 +20°C° 0 mm 4 mps 755 mmHg 48%
    14:00 +20°C° 0 mm 4 mps 754 mmHg 50%
    15:00 +20°C° 0 mm 4 mps 754 mmHg 52%
    16:00 +20°C° 0 mm 4 mps 754 mmHg 54%
    17:00 +18°C° 0 mm 3 mps 754 mmHg 61%
    18:00 +16°C° 0 mm 3 mps 754 mmHg 68%
    19:00 +15°C° 0 mm 2 mps 754 mmHg 75%
    20:00 +14°C° 0 mm 2 mps 755 mmHg 76%
    21:00 +14°C° 0 mm 2 mps 755 mmHg 78%
    22:00 +13°C° 0 mm 2 mps 755 mmHg 79%
    23:00 +13°C° 0 mm 2 mps 755 mmHg 77%

    Pasado mañana, 21 Febrero, Viernes

    Tiempo Temperatura Precipitaciones Viento Presión Humedad
    00:00 +13°C° 0 mm 2 mps 755 mmHg 76%
    01:00 +13°C° 0 mm 1 mps 755 mmHg 74%
    08:00 +20°C° 0 mm 1 mps 755 mmHg 42%
    09:00 +23°C° 0 mm 1 mps 755 mmHg 35%
    10:00 +26°C° 0 mm 1 mps 755 mmHg 27%
    11:00 +27°C° 0 mm 1 mps 755 mmHg 26%
    12:00 +28°C° 0 mm 1 mps 754 mmHg 26%
    13:00 +29°C° 0 mm 1 mps 754 mmHg 25%
    14:00 +29°C° 0 mm 2 mps 754 mmHg 27%
    15:00 +28°C° 0 mm 2 mps 753 mmHg 30%
    16:00 +27°C° 0 mm 2 mps 753 mmHg 32%
    17:00 +25°C° 0 mm 2 mps 753 mmHg 41%
    18:00 +21°C° 0 mm 2 mps 753 mmHg 49%
    19:00 +19°C° 0 mm 1 mps 753 mmHg 57%
    20:00 +18°C° 0 mm 1 mps 754 mmHg 58%
    21:00 +16°C° 0 mm 1 mps 754 mmHg 59%
    22:00 +15°C° 0 mm 1 mps 754 mmHg 60%
    23:00 +15°C° 0 mm 1 mps 754 mmHg 61%

    22 Febrero, Sábado

    Tiempo Temperatura Precipitaciones Viento Presión Humedad
    00:00 +14°C° 0 mm 1 mps 754 mmHg 61%
    01:00 +14°C° 0 mm 1 mps 753 mmHg 62%
    02:00 +14°C° 0 mm 1 mps 753 mmHg 61%
    03:00 +14°C° 0 mm 1 mps 753 mmHg 60%
    04:00 +13°C° 0 mm 1 mps 753 mmHg 59%
    05:00 +14°C° 0 mm 1 mps 753 mmHg 58%
    06:00 +15°C° 0 mm 1 mps 753 mmHg 56%
    07:00 +16°C° 0 mm 1 mps 753 mmHg 55%
    08:00 +20°C° 0 mm 1 mps 753 mmHg 47%
    09:00 +23°C° 0 mm 1 mps 753 mmHg 39%
    10:00 +26°C° 0 mm 1 mps 753 mmHg 32%
    11:00 +27°C° 0 mm 1 mps 753 mmHg 30%
    12:00 +28°C° 0 mm 1 mps 752 mmHg 28%
    13:00 +30°C° 0 mm 1 mps 752 mmHg 26%
    14:00 +29°C° 0 mm 1 mps 752 mmHg 28%
    15:00 +29°C° 0 mm 1 mps 751 mmHg 30%
    16:00 +28°C° 0 mm 2 mps 751 mmHg 32%
    17:00 +25°C° 0 mm 2 mps 751 mmHg 42%
    18:00 +21°C° 0 mm 2 mps 752 mmHg 51%
    19:00 +18°C° 0 mm 2 mps 752 mmHg 61%
    20:00 +16°C° 0 mm 2 mps 752 mmHg 69%
    21:00 +15°C° 0 mm 2 mps 752 mmHg 77%
    22:00 +13°C° 0 mm 1 mps 752 mmHg 85%
    23:00 +13°C° 0 mm 2 mps 752 mmHg 88%

    23 Febrero, Domingo

    Tiempo Temperatura Precipitaciones Viento Presión Humedad
    00:00 +13°C° 0 mm 2 mps 752 mmHg 91%
    01:00 +12°C° 0 mm 2 mps 752 mmHg 94%
    02:00 +12°C° 0 mm 3 mps 752 mmHg 93%
    03:00 +12°C° 0 mm 3 mps 752 mmHg 91%
    04:00 +12°C° 0 mm 3 mps 752 mmHg 90%
    05:00 +12°C° 0 mm 3 mps 753 mmHg 88%
    06:00 +12°C° 0 mm 4 mps 753 mmHg 86%
    07:00 +13°C° 0 mm 4 mps 753 mmHg 84%
    08:00 +14°C° 0 mm 3 mps 753 mmHg 80%
    09:00 +16°C° 0 mm 3 mps 753 mmHg 75%
    10:00 +17°C° 0 mm 3 mps 754 mmHg 71%
    11:00 +17°C° 0 mm 3 mps 754 mmHg 71%
    12:00 +17°C° 0 mm 3 mps 753 mmHg 70%
    13:00 +18°C° 0 mm 3 mps 753 mmHg 70%
    14:00 +18°C° 0 mm 3 mps 753 mmHg 68%
    15:00 +18°C° 0 mm 3 mps 753 mmHg 66%
    16:00 +18°C° 0 mm 3 mps 753 mmHg 64%
    17:00 +17°C° 0 mm 3 mps 753 mmHg 66%
    18:00 +14°C° 0 mm 3 mps 754 mmHg 69%
    19:00 +13°C° 0 mm 3 mps 754 mmHg 72%
    20:00 +13°C° 0 mm 3 mps 754 mmHg 76%
    21:00 +12°C° 0 mm 3 mps 755 mmHg 79%
    22:00 +11°C° 0 mm 4 mps 755 mmHg 82%
    23:00 +11°C° 0 mm 3 mps 755 mmHg 83%

    24 Febrero, Lunes

    Tiempo Temperatura Precipitaciones Viento Presión Humedad
    00:00 +10°C° 0 mm 3 mps 755 mmHg 84%
    01:00 +9°C° 0 mm 2 mps 755 mmHg 85%
    02:00 +9°C° 0 mm 2 mps 755 mmHg 88%
    03:00 +8°C° 0 mm 2 mps 755 mmHg 90%
    04:00 +8°C° 0 mm 2 mps 755 mmHg 93%
    05:00 +10°C° 0 mm 1 mps 755 mmHg 89%
    06:00 +11°C° 0 mm 1 mps 755 mmHg 84%
    07:00 +12°C° 0 mm 1 mps 755 mmHg 80%
    08:00 +13°C° 0 mm 1 mps 755 mmHg 74%
    09:00 +15°C° 0 mm 1 mps 755 mmHg 67%
    10:00 +16°C° 0 mm 1 mps 754 mmHg 61%
    11:00 +16°C° 0 mm 1 mps 754 mmHg 61%
    12:00 +16°C° 0 mm 1 mps 754 mmHg 62%
    13:00 +16°C° 0 mm 1 mps 754 mmHg 63%
    14:00 +16°C° 0.1 mm 1 mps 754 mmHg 64%
    15:00 +16°C° 0.1 mm 1 mps 753 mmHg 65%
    16:00 +16°C° 0.1 mm 2 mps 753 mmHg 67%
    17:00 +15°C° 0 mm 2 mps 753 mmHg 70%
    18:00 +15°C° 0 mm 2 mps 753 mmHg 74%
    19:00 +14°C° 0 mm 2 mps 753 mmHg 77%
    20:00 +14°C° 0.1 mm 2 mps 753 mmHg 82%
    21:00 +13°C° 0.1 mm 2 mps 753 mmHg 87%
    22:00 +13°C° 0.1 mm 2 mps 753 mmHg 91%
    23:00 +13°C° 0.2 mm 2 mps 753 mmHg 92%
    Mostrar más